Regional Weather Roundup
Issued by NWS Little Rock, AR

Home | Current Version | Previous Version | Graphics & Text | Print | Product List | Glossary On
Versions: 1 2 3 4 5 6 7 8 9 10 11 12 13 14 15 16 17 18 19 20 21 22 23 24 25 26 27 28 29 30 31 32 33 34 35 36 37 38 39 40 41 42 43 44 45 46 47 48 49 50
632
ASUS44 KLZK 220605
RWRLZK

WEATHER ROUNDUP FOR ARKANSAS
NATIONAL WEATHER SERVICE LITTLE ROCK AR
100 AM CDT MON MAY 22 2017

NOTE: "FAIR" INDICATES FEW OR NO CLOUDS BELOW 12,000 FEET WITH NO
SIGNIFICANT WEATHER AND/OR OBSTRUCTIONS TO VISIBILITY.

ARZ001-003-010-029-220700-
NORTHWEST ARKANSAS

CITY           SKY/WX    TMP DP  RH WIND       PRES   REMARKS
FAYETTEVILLE   CLOUDY    52  52 100 CALM      30.17S
6HR MIN TEMP:  52; 6HR MAX TEMP:  67;

FORT SMITH     CLOUDY    62  54  74 CALM      30.12F
6HR MIN TEMP:  60; 6HR MAX TEMP:  73;

HARRISON       CLOUDY    54  50  86 CALM      30.17F
6HR MIN TEMP:  53; 6HR MAX TEMP:  67;

BENTONVILLE    CLOUDY    55  52  88 CALM      30.17S
6HR MIN TEMP:  55; 6HR MAX TEMP:  70;

ROGERS         PTCLDY    56  51  84 CALM      30.17F
6HR MIN TEMP:  55; 6HR MAX TEMP:  68; 6HR PCP:  0.05;

SILOAM SPGS    CLOUDY    55  48  76 E3        30.15F
6HR MIN TEMP:  55; 6HR MAX TEMP:  68;

HIGHFILL       PTCLDY    54  51  90 CALM      30.16
6HR MIN TEMP:  54; 6HR MAX TEMP:  71;

$$

ARZ004-005-016-220700-
NORTH CENTRAL ARKANSAS

CITY           SKY/WX    TMP DP  RH WIND       PRES   REMARKS
BATESVILLE     CLOUDY    55  52  88 CALM      30.15S
6HR MIN TEMP:  55; 6HR MAX TEMP:  72;

FLIPPIN        CLOUDY    55  48  76 CALM      30.13F
6HR MIN TEMP:  54; 6HR MAX TEMP:  70;

MTN HOME       CLOUDY    55  47  74 CALM      30.15F
6HR MIN TEMP:  54; 6HR MAX TEMP:  68;

$$

ARZ040-041-220700-
WEST CENTRAL ARKANSAS

CITY           SKY/WX    TMP DP  RH WIND       PRES   REMARKS
MENA           CLOUDY    59  57  94 CALM      30.13F
MOUNT IDA      CLOUDY    58  55  90 CALM      30.10F
6HR MIN TEMP:  57; 6HR MAX TEMP:  72;

$$

ARZ009-017-025-026-028-220700-
NORTHEAST ARKANSAS

CITY           SKY/WX    TMP DP  RH WIND       PRES   REMARKS
JONESBORO      CLOUDY    62  50  64 N8        30.12F
6HR MIN TEMP:  60; 6HR MAX TEMP:  74;

NEWPORT        CLOUDY    58  53  84 N7        30.13F
6HR MIN TEMP:  58; 6HR MAX TEMP:  72;

WALNUT RIDGE   CLEAR     59  48  67 N8        30.13F
6HR MIN TEMP:  59; 6HR MAX TEMP:  73;

BLYTHEVILLE    PTCLDY    59  56  89 N8        30.12F
6HR MIN TEMP:  58; 6HR MAX TEMP:  74;

$$

ARZ022-023-033-042-044-220700-
CENTRAL ARKANSAS

CITY           SKY/WX    TMP DP  RH WIND       PRES   REMARKS
LITTLE ROCK    CLOUDY    59  52  77 N6        30.12F
6HR MIN TEMP:  59; 6HR MAX TEMP:  73;

N LITTLE ROCK    N/A     62  50  64 CALM      30.12F
6HR MIN TEMP:  62; 6HR MAX TEMP:  71;

JACKSONVILLE   CLOUDY    58  56  92 CALM      30.12S
6HR MIN TEMP:  57; 6HR MAX TEMP:  74;

CONWAY           N/A     59  57  94 S3        30.12S
SEARCY         CLOUDY    56  56 100 N5        30.14F
6HR MIN TEMP:  56; 6HR MAX TEMP:  73;

HOT SPRINGS    CLOUDY    62  55  77 CALM      30.12F
6HR MIN TEMP:  61; 6HR MAX TEMP:  75;

RUSSELLVILLE   CLOUDY    56  54  93 CALM      30.13S
6HR MIN TEMP:  56; 6HR MAX TEMP:  75;

CLINTON        FAIR      54  52  94 CALM      30.16R
$$

ARZ036-220700-
EAST ARKANSAS

CITY           SKY/WX    TMP DP  RH WIND       PRES   REMARKS
WEST MEMPHIS   CLOUDY    61  56  83 N6        30.10F
6HR MIN TEMP:  60; 6HR MAX TEMP:  75;

$$

ARZ050-053-066-070-073-220700-
SOUTHWEST ARKANSAS

CITY           SKY/WX    TMP DP  RH WIND       PRES   REMARKS
ARKADELPHIA    FAIR      63  57  81 CALM      30.11F
6HR MIN TEMP:  60; 6HR MAX TEMP:  74;

CAMDEN         CLOUDY    61  59  94 CALM      30.11F FOG
TEXARKANA      MOCLDY    63  58  83 CALM      30.11S
6HR MIN TEMP:  63; 6HR MAX TEMP:  75;

EL DORADO      MOCLDY    61  61 100 CALM      30.10
6HR MIN TEMP:  61; 6HR MAX TEMP:  71;

DE QUEEN       MOCLDY    61  58  90 CALM      30.09F
6HR MIN TEMP:  61; 6HR MAX TEMP:  75;

$$

ARZ056-057-069-220700-
SOUTHEAST ARKANSAS

CITY           SKY/WX    TMP DP  RH WIND       PRES   REMARKS
PINE BLUFF     CLOUDY    61  55  81 N6        30.10F
6HR MIN TEMP:  59; 6HR MAX TEMP:  74;

STUTTGART      CLOUDY    63  46  55 N7        30.12F
6HR MIN TEMP:  63; 6HR MAX TEMP:  75;

MONTICELLO       N/A     62  60  93 MISG      30.11R
6HR MIN TEMP:  62; 6HR MAX TEMP:  72;


$$






USA.gov is the U.S. government's official web portal to all federal, state and local government web resources and services.